CST,Max TemperatureF,Mean TemperatureF,Min TemperatureF,Max Dew PointF,MeanDew PointF,Min DewpointF,Max Humidity, Mean Humidity, Min Humidity, Max Sea Level PressureIn, Mean Sea Level PressureIn, Min Sea Level PressureIn, Max VisibilityMiles, Mean VisibilityMiles, Min VisibilityMiles, Max Wind SpeedMPH, Mean Wind SpeedMPH, Max Gust SpeedMPH,PrecipitationIn, CloudCover, Events, WindDirDegrees
2013-1-1,21,12,3,19,10,-2,93,83,73,30.24,30.15,30.00,10,7,0,15,5,,0.00,8,Fog,201
2013-1-2,32,19,6,28,20,3,93,86,69,30.16,30.01,29.94,10,7,0,16,6,21,0.00,8,Fog-Snow,286
2013-1-3,26,16,5,21,8,0,93,82,73,30.34,30.25,30.16,10,9,1,16,10,22,0.00,3,Snow,284
2013-1-4,23,13,3,14,8,0,86,79,63,30.15,30.11,30.07,10,10,10,10,4,,0.00,0,,237
2013-1-5,28,14,0,19,7,-6,86,79,69,30.14,30.00,29.90,10,8,2,26,5,33,0.00,2,Snow,316
2013-1-6,26,13,3,19,9,0,86,82,73,30.24,30.14,29.93,10,9,5,20,7,,0.00,0,Snow,212
2013-1-7,32,22,12,25,18,9,93,82,69,29.98,29.94,29.89,10,9,0,17,7,20,0.00,0,Fog,209
2013-1-8,32,20,8,28,18,5,100,87,79,30.02,29.86,29.72,10,6,0,16,4,,0.00,3,Fog,241
2013-1-9,35,27,19,28,25,16,93,83,75,30.33,30.22,30.03,10,10,10,17,10,,0.00,0,,220
2013-1-10,35,30,26,32,28,21,100,85,70,30.23,29.96,29.61,10,8,1,16,9,22,0.00,4,Rain,162
2013-1-11,35,29,21,34,31,18,100,94,86,29.60,29.46,29.34,10,2,0,29,11,36,0.00,8,Fog-Rain-Snow,202
2013-1-12,21,12,3,18,4,-2,86,75,67,30.10,29.93,29.57,10,8,3,28,19,36,0.00,4,Snow,301
2013-1-13,12,8,3,3,0,-4,85,73,57,30.25,30.15,30.07,10,10,7,17,9,22,0.00,3,,303
2013-1-14,21,12,3,14,6,-2,86,80,68,30.38,30.29,30.24,10,10,5,12,3,,0.00,1,Snow,214
2013-1-15,30,16,3,18,9,0,86,73,51,30.24,30.09,29.85,10,10,10,18,7,18,0.00,0,,208
2013-1-16,39,26,12,32,21,1,93,77,49,30.25,29.93,29.75,10,10,5,17,12,25,0.00,4,Snow,297
2013-1-17,32,22,12,27,15,1,93,73,62,30.39,30.32,30.15,10,10,2,9,3,,0.00,6,,205
2013-1-18,42,34,26,32,28,23,93,81,61,30.14,29.89,29.79,10,10,3,18,8,,0.00,0,,220
2013-1-19,41,24,8,32,22,-2,93,74,55,30.33,29.97,29.75,10,10,10,32,11,43,0.00,2,,307
2013-1-20,12,6,1,5,0,-8,85,73,66,30.41,30.34,30.31,10,7,1,20,10,25,0.00,4,Snow,317
2013-1-21,3,-2,-7,-4,-10,-15,78,67,55,30.38,30.34,30.30,10,9,3,23,14,30,0.00,1,,307
2013-1-22,15,8,0,10,1,-6,86,70,57,30.33,30.26,30.15,10,10,7,14,4,,0.00,5,Snow,218
2013-1-23,19,8,-4,10,2,-15,86,71,53,30.54,30.29,30.11,10,10,10,22,10,25,0.00,1,,342
2013-1-24,17,6,-4,7,-4,-15,72,63,57,30.57,30.35,30.08,10,10,10,20,11,24,0.00,3,,140
2013-1-25,28,17,5,21,8,-2,86,71,54,30.26,30.12,30.02,10,10,7,22,8,26,0.00,2,,326
2013-1-26,33,19,5,23,11,-2,78,69,54,30.26,30.11,29.97,10,10,10,17,6,23,0.00,3,,143
2013-1-27,33,32,30,32,29,21,100,87,69,29.97,29.81,29.72,10,5,0,14,9,17,0.18,7,Fog-Rain,154
2013-1-28,33,32,32,34,32,32,100,96,93,29.84,29.75,29.57,3,1,0,12,3,16,0.00,8,Fog-Snow,113
2013-1-29,35,29,23,32,28,18,100,88,74,29.78,29.67,29.57,10,8,1,20,10,32,0.00,7,,352
2013-1-30,23,12,1,18,9,-6,80,74,68,29.88,29.80,29.74,10,9,2,24,19,34,0.00,6,Snow,332
2013-1-31,1,-2,-5,-8,-12,-15,78,66,55,30.32,30.14,29.88,10,9,2,28,16,34,0.00,2,Snow,317